ANZ5 KLAX-NZAA

Flight info

Callsign ANZ5
Flight time N/A
Altitude 32000
Route SUMMR2 FICKY DCT 30N125W 26N130W/N0503F340 22N135W 18N140W 14N145W 06N150W/N0502F360 00N155W 06S160W 16S165W/N0495F380 23S170W 25S175W DCT INTIB G457 ELPAK
Aircraft B789/H-SDE1E2E3FGHIJ2J3J4J5M1RWXY/LB1D1

Departure

Time 2026-04-22 19:46
Airport Los Angeles International Airport (KLAX)

Arrival

Time N/A
Airport Auckland International Airport (NZAA)
Time Latitude Longitude Altitude Speed Heading
2026-04-22 19:16 33.94025 -118.40918 126 ft 0 kts 264°
2026-04-22 19:33 33.94026 -118.40908 131 ft 3 kts 264°
2026-04-22 19:34 33.94028 -118.40885 125 ft 2 kts 263°
2026-04-22 19:34 33.94031 -118.40864 125 ft 3 kts 249°
2026-04-22 19:34 33.94039 -118.40846 125 ft 3 kts 223°
2026-04-22 19:34 33.94053 -118.40835 125 ft 3 kts 197°
2026-04-22 19:35 33.94071 -118.40831 127 ft 3 kts 178°
2026-04-22 19:35 33.94082 -118.40832 129 ft 0 kts 172°
2026-04-22 19:37 33.94071 -118.40830 127 ft 4 kts 172°
2026-04-22 19:37 33.94030 -118.40824 125 ft 9 kts 174°
2026-04-22 19:37 33.93963 -118.40815 128 ft 10 kts 174°
2026-04-22 19:38 33.93900 -118.40791 128 ft 11 kts 141°
2026-04-22 19:38 33.93832 -118.40726 126 ft 12 kts 138°
2026-04-22 19:38 33.93814 -118.40636 128 ft 14 kts 87°
2026-04-22 19:38 33.93828 -118.40487 127 ft 22 kts 83°
2026-04-22 19:39 33.93847 -118.40301 131 ft 22 kts 83°
2026-04-22 19:39 33.93865 -118.40124 127 ft 21 kts 83°
2026-04-22 19:39 33.93883 -118.39953 126 ft 20 kts 83°
2026-04-22 19:39 33.93900 -118.39789 127 ft 19 kts 83°
2026-04-22 19:40 33.93916 -118.39631 131 ft 19 kts 83°
2026-04-22 19:40 33.93932 -118.39479 131 ft 18 kts 83°
2026-04-22 19:40 33.93947 -118.39332 129 ft 17 kts 83°
2026-04-22 19:40 33.93961 -118.39190 128 ft 17 kts 83°
2026-04-22 19:41 33.93976 -118.39052 131 ft 17 kts 83°
2026-04-22 19:41 33.93992 -118.38894 131 ft 20 kts 83°
2026-04-22 19:41 33.94007 -118.38733 130 ft 19 kts 83°
2026-04-22 19:41 33.94022 -118.38579 130 ft 18 kts 83°
2026-04-22 19:42 33.94038 -118.38430 127 ft 18 kts 82°
2026-04-22 19:42 33.94054 -118.38287 126 ft 17 kts 82°
2026-04-22 19:42 33.94068 -118.38141 130 ft 14 kts 83°
2026-04-22 19:42 33.94074 -118.38049 130 ft 6 kts 103°
2026-04-22 19:43 33.94015 -118.38003 126 ft 3 kts 186°
2026-04-22 19:43 33.93994 -118.38024 126 ft 5 kts 235°
2026-04-22 19:43 33.93980 -118.38077 127 ft 7 kts 259°
2026-04-22 19:44 33.93978 -118.38090 131 ft 0 kts 264°
2026-04-22 19:45 33.93977 -118.38108 131 ft 12 kts 264°
2026-04-22 19:45 33.93942 -118.38457 127 ft 74 kts 262°
2026-04-22 19:45 33.93852 -118.39320 126 ft 132 kts 262°
2026-04-22 19:45 33.93719 -118.40625 173 ft 176 kts 264°
2026-04-22 19:46 33.93588 -118.42037 784 ft 166 kts 263°
2026-04-22 19:46 33.93432 -118.43460 1044 ft 178 kts 260°
2026-04-22 19:46 33.93248 -118.45033 1197 ft 197 kts 263°
2026-04-22 19:46 33.93101 -118.46680 1730 ft 197 kts 263°
2026-04-22 19:47 33.92970 -118.48361 2040 ft 209 kts 263°
2026-04-22 19:47 33.92825 -118.50170 2242 ft 224 kts 264°
2026-04-22 19:47 33.92720 -118.51432 2389 ft 235 kts 264°
2026-04-22 19:47 33.92494 -118.54161 2940 ft 249 kts 264°
2026-04-22 19:48 33.92321 -118.56254 3530 ft 253 kts 264°
2026-04-22 19:48 33.92146 -118.58376 4175 ft 254 kts 265°
2026-04-22 19:48 33.91970 -118.60497 4861 ft 256 kts 265°
2026-04-22 19:48 33.91794 -118.62634 5469 ft 258 kts 266°
2026-04-22 19:49 33.91799 -118.64797 6049 ft 258 kts 272°
2026-04-22 19:49 33.91783 -118.66965 6685 ft 260 kts 270°
2026-04-22 19:49 33.91752 -118.69157 7238 ft 262 kts 271°
2026-04-22 19:49 33.91742 -118.71358 7830 ft 263 kts 271°
2026-04-22 19:50 33.91740 -118.73569 8403 ft 265 kts 271°
2026-04-22 19:50 33.91732 -118.75793 9005 ft 266 kts 271°
2026-04-22 19:50 33.91721 -118.78023 9599 ft 267 kts 271°
2026-04-22 19:50 33.91710 -118.80261 10179 ft 269 kts 271°
2026-04-22 19:51 33.91701 -118.82539 10389 ft 283 kts 271°
2026-04-22 19:51 33.91768 -118.84948 10556 ft 297 kts 274°
2026-04-22 19:51 33.91844 -118.87528 10773 ft 312 kts 272°
2026-04-22 19:51 33.91898 -118.90166 10997 ft 325 kts 272°
2026-04-22 19:52 33.91977 -118.92946 11237 ft 338 kts 273°
2026-04-22 19:52 33.92071 -118.95806 11688 ft 344 kts 272°
2026-04-22 19:52 33.92157 -118.98695 12265 ft 346 kts 272°
2026-04-22 19:52 33.92012 -119.01597 12755 ft 351 kts 259°
2026-04-22 19:53 33.91267 -119.04407 13362 ft 355 kts 249°
2026-04-22 19:53 33.90251 -119.07116 13966 ft 356 kts 249°
2026-04-22 19:53 33.89576 -119.08969 14338 ft 357 kts 249°
2026-04-22 19:53 33.88267 -119.12608 15051 ft 359 kts 249°
2026-04-22 19:54 33.87604 -119.14440 15418 ft 360 kts 249°
2026-04-22 19:54 33.86595 -119.17200 15958 ft 362 kts 249°
2026-04-22 19:54 33.85610 -119.19893 16471 ft 363 kts 249°
2026-04-22 19:54 33.84627 -119.22592 16976 ft 364 kts 249°
2026-04-22 19:55 33.83609 -119.25387 17500 ft 366 kts 249°
2026-04-22 19:55 33.82584 -119.28195 18029 ft 367 kts 249°
2026-04-22 19:55 33.81552 -119.31008 18547 ft 368 kts 249°
2026-04-22 19:55 33.80267 -119.33703 18931 ft 375 kts 239°
2026-04-22 19:56 33.78592 -119.36140 19348 ft 383 kts 230°
2026-04-22 19:56 33.76559 -119.38244 19778 ft 389 kts 223°
2026-04-22 19:56 33.74415 -119.40238 20197 ft 390 kts 223°
2026-04-22 19:56 33.72271 -119.42252 20608 ft 392 kts 224°
2026-04-22 19:57 33.70125 -119.44273 21040 ft 393 kts 224°
2026-04-22 19:57 33.67960 -119.46303 21442 ft 395 kts 223°
2026-04-22 19:57 33.65809 -119.48314 21841 ft 397 kts 223°
2026-04-22 19:57 33.63596 -119.50385 22235 ft 399 kts 223°
2026-04-22 19:58 33.61398 -119.52444 22620 ft 401 kts 223°
2026-04-22 19:58 33.59216 -119.54484 23005 ft 404 kts 223°
2026-04-22 19:58 33.56993 -119.56561 23351 ft 406 kts 223°
2026-04-22 19:58 33.54754 -119.58651 23729 ft 409 kts 223°
2026-04-22 19:59 33.52503 -119.60751 24047 ft 411 kts 223°
2026-04-22 20:00 33.38789 -119.73517 25859 ft 421 kts 223°
2026-04-22 20:00 33.36468 -119.75672 26156 ft 423 kts 223°
2026-04-22 20:01 33.34137 -119.77835 26459 ft 425 kts 223°
2026-04-22 20:01 33.31794 -119.80008 26743 ft 427 kts 223°
2026-04-22 20:01 33.29439 -119.82190 27036 ft 429 kts 223°
2026-04-22 20:01 33.27076 -119.84378 27334 ft 431 kts 223°
2026-04-22 20:02 33.24706 -119.86571 27625 ft 432 kts 223°
2026-04-22 20:02 33.22349 -119.88751 27919 ft 434 kts 223°
2026-04-22 20:02 33.19956 -119.90962 28215 ft 436 kts 223°
2026-04-22 20:02 33.17553 -119.93181 28512 ft 437 kts 223°
2026-04-22 20:03 33.15141 -119.95406 28814 ft 439 kts 223°
2026-04-22 20:03 33.12719 -119.97640 29102 ft 441 kts 223°
2026-04-22 20:03 33.10292 -119.99875 29476 ft 440 kts 224°
2026-04-22 20:03 33.07871 -120.02103 29829 ft 440 kts 224°
2026-04-22 20:04 33.05441 -120.04341 30115 ft 442 kts 224°
2026-04-22 20:04 33.02995 -120.06591 30397 ft 444 kts 224°
2026-04-22 20:04 33.00553 -120.08833 30662 ft 445 kts 224°
2026-04-22 20:04 32.98097 -120.11087 30947 ft 445 kts 224°
2026-04-22 20:05 32.95641 -120.13340 31255 ft 445 kts 224°
2026-04-22 20:05 32.93190 -120.15587 31558 ft 445 kts 224°
2026-04-22 20:05 32.90739 -120.17834 31845 ft 445 kts 225°
2026-04-22 20:05 32.88280 -120.20085 32107 ft 446 kts 225°
2026-04-22 20:06 32.85815 -120.22341 32237 ft 448 kts 225°
2026-04-22 20:06 32.80900 -120.26827 32219 ft 441 kts 225°
2026-04-22 20:07 32.76075 -120.31236 32240 ft 441 kts 225°
2026-04-22 20:07 32.71200 -120.35676 32243 ft 441 kts 225°
2026-04-22 20:08 32.66318 -120.40119 32235 ft 442 kts 225°
2026-04-22 20:08 32.61450 -120.44541 32240 ft 440 kts 225°
2026-04-22 20:09 32.56603 -120.48942 32241 ft 439 kts 225°
2026-04-22 20:09 32.51753 -120.53344 32247 ft 439 kts 225°
2026-04-22 20:10 32.46896 -120.57742 32258 ft 440 kts 225°
2026-04-22 20:10 32.42028 -120.62145 32253 ft 441 kts 225°
2026-04-22 20:11 32.37148 -120.66552 32260 ft 441 kts 225°
2026-04-22 20:11 32.32291 -120.70935 32260 ft 441 kts 225°
2026-04-22 20:12 32.27407 -120.75333 32264 ft 441 kts 225°
2026-04-22 20:12 32.22519 -120.79730 32262 ft 441 kts 225°
2026-04-22 20:13 32.17631 -120.84121 32253 ft 442 kts 225°
2026-04-22 20:13 32.12719 -120.88528 32252 ft 443 kts 225°
2026-04-22 20:14 32.07804 -120.92929 32251 ft 443 kts 225°
2026-04-22 20:14 32.02917 -120.97302 32252 ft 443 kts 224°
2026-04-22 20:15 31.98011 -121.01683 32253 ft 442 kts 224°
2026-04-22 20:15 31.93111 -121.06055 32252 ft 442 kts 224°
2026-04-22 20:16 31.88214 -121.10418 32249 ft 441 kts 224°
2026-04-22 20:16 31.83319 -121.14772 32252 ft 441 kts 224°
2026-04-22 20:17 31.78412 -121.19132 32256 ft 443 kts 224°
2026-04-22 20:17 31.73487 -121.23501 32260 ft 444 kts 224°
2026-04-22 20:18 31.68550 -121.27875 32262 ft 444 kts 224°
2026-04-22 20:18 31.63651 -121.32209 32259 ft 442 kts 224°
2026-04-22 20:19 31.58789 -121.36649 32249 ft 436 kts 230°
2026-04-22 20:19 31.54896 -121.41945 32267 ft 431 kts 241°
2026-04-22 20:20 31.52098 -121.48099 32269 ft 427 kts 248°
2026-04-22 20:20 31.49505 -121.54363 32272 ft 427 kts 248°
2026-04-22 20:21 31.46925 -121.60619 32268 ft 426 kts 248°
2026-04-22 20:21 31.44346 -121.66850 32274 ft 425 kts 248°
2026-04-22 20:22 31.41770 -121.73065 32259 ft 424 kts 248°
2026-04-22 20:22 31.39191 -121.79280 32264 ft 425 kts 248°
2026-04-22 20:23 31.36599 -121.85511 32264 ft 426 kts 248°
2026-04-22 20:23 31.33999 -121.91753 32267 ft 427 kts 248°
2026-04-22 20:24 31.31393 -121.97996 32275 ft 427 kts 248°
2026-04-22 20:24 31.28778 -122.04252 32279 ft 428 kts 247°
2026-04-22 20:25 31.26162 -122.10500 32273 ft 427 kts 247°
2026-04-22 20:25 31.23547 -122.16733 32267 ft 426 kts 247°
2026-04-22 20:26 31.20961 -122.22889 32265 ft 424 kts 247°
2026-04-22 20:26 31.18355 -122.29082 32265 ft 426 kts 247°
2026-04-22 20:27 31.15734 -122.35299 32258 ft 427 kts 247°
2026-04-22 20:27 31.13104 -122.41526 32274 ft 428 kts 247°
2026-04-22 20:28 31.10468 -122.47757 32278 ft 427 kts 247°
2026-04-22 20:28 31.07835 -122.53972 32273 ft 427 kts 247°
2026-04-22 20:29 31.05206 -122.60167 32268 ft 426 kts 247°
2026-04-22 20:29 31.02570 -122.66366 32265 ft 427 kts 247°
2026-04-22 20:30 30.99940 -122.72544 32274 ft 429 kts 247°
2026-04-22 20:30 30.97283 -122.78768 32276 ft 428 kts 247°
2026-04-22 20:31 30.94634 -122.84970 32284 ft 427 kts 247°
2026-04-22 20:31 30.91983 -122.91165 32276 ft 427 kts 246°
2026-04-22 20:32 30.89324 -122.97369 32283 ft 430 kts 246°
2026-04-22 20:32 30.86638 -123.03621 32286 ft 431 kts 246°
2026-04-22 20:33 30.83954 -123.09860 32290 ft 431 kts 246°
2026-04-22 20:33 30.81272 -123.16085 32281 ft 430 kts 246°
2026-04-22 20:34 30.78608 -123.22256 32280 ft 429 kts 246°
2026-04-22 20:34 30.75924 -123.28467 32280 ft 429 kts 246°
2026-04-22 20:35 30.73243 -123.34658 32277 ft 429 kts 246°
2026-04-22 20:35 30.70552 -123.40861 32282 ft 430 kts 246°
2026-04-22 20:36 30.67849 -123.47084 32290 ft 431 kts 246°
2026-04-22 20:36 30.65138 -123.53313 32292 ft 432 kts 246°
2026-04-22 20:37 30.62440 -123.59503 32284 ft 431 kts 246°
2026-04-22 20:37 30.59730 -123.65709 32288 ft 431 kts 246°
2026-04-22 20:38 30.57008 -123.71934 32281 ft 431 kts 246°
2026-04-22 20:38 30.54300 -123.78115 32285 ft 433 kts 246°
2026-04-22 20:39 30.51565 -123.84348 32289 ft 433 kts 246°
2026-04-22 20:39 30.48835 -123.90560 32292 ft 432 kts 246°
2026-04-22 20:40 30.46568 -123.95710 32282 ft 431 kts 245°
2026-04-22 20:40 30.43838 -124.01903 32283 ft 432 kts 245°
2026-04-22 20:41 30.41098 -124.08108 32281 ft 433 kts 245°
2026-04-22 20:41 30.38348 -124.14327 32287 ft 434 kts 245°
2026-04-22 20:42 30.35590 -124.20552 32290 ft 433 kts 245°
2026-04-22 20:42 30.32856 -124.26715 32281 ft 434 kts 245°
2026-04-22 20:43 30.30088 -124.32943 32283 ft 435 kts 245°
2026-04-22 20:43 30.27316 -124.39168 32282 ft 434 kts 245°
2026-04-22 20:44 30.24550 -124.45372 32280 ft 433 kts 245°
2026-04-22 20:44 30.21793 -124.51547 32278 ft 432 kts 245°
2026-04-22 20:45 30.19019 -124.57749 32283 ft 434 kts 245°
2026-04-22 20:45 30.16242 -124.63946 32283 ft 435 kts 245°
2026-04-22 20:46 30.12085 -124.73206 32280 ft 434 kts 245°
2026-04-22 20:46 30.09304 -124.79386 32276 ft 433 kts 245°
2026-04-22 20:47 30.06532 -124.85540 32282 ft 432 kts 245°
2026-04-22 20:47 30.03754 -124.91697 32278 ft 433 kts 245°
2026-04-22 20:48 30.00964 -124.97852 32280 ft 433 kts 244°
2026-04-22 20:48 29.97372 -125.03491 32276 ft 439 kts 233°
2026-04-22 20:49 29.93372 -125.08797 32278 ft 439 kts 233°
2026-04-22 20:49 29.89366 -125.14113 32280 ft 439 kts 233°
2026-04-22 20:50 29.85361 -125.19408 32288 ft 439 kts 233°
2026-04-22 20:50 29.81355 -125.24709 32286 ft 438 kts 233°
2026-04-22 20:51 29.77371 -125.29964 32279 ft 438 kts 233°
2026-04-22 20:51 29.73367 -125.35246 32281 ft 438 kts 233°
2026-04-22 20:52 29.69367 -125.40511 32281 ft 436 kts 233°
2026-04-22 20:52 29.65363 -125.45778 32293 ft 437 kts 233°
2026-04-22 20:53 29.61350 -125.51047 32283 ft 438 kts 233°
2026-04-22 20:53 29.57329 -125.56320 32283 ft 437 kts 233°
2026-04-22 20:54 29.53346 -125.61538 32284 ft 437 kts 233°
2026-04-22 20:54 29.49342 -125.66775 32280 ft 436 kts 232°
2026-04-22 20:55 29.45336 -125.72009 32286 ft 435 kts 232°
2026-04-22 20:55 29.41338 -125.77226 32275 ft 435 kts 232°
2026-04-22 20:56 29.37336 -125.82440 32285 ft 436 kts 232°
2026-04-22 20:56 29.33315 -125.87673 32285 ft 438 kts 232°
2026-04-22 20:57 29.29295 -125.92894 32275 ft 433 kts 232°
2026-04-22 20:57 29.25312 -125.98067 32272 ft 433 kts 232°
2026-04-22 20:58 29.21354 -126.03197 32273 ft 433 kts 232°
2026-04-22 20:58 29.17360 -126.08369 32274 ft 433 kts 232°
2026-04-22 20:59 29.13364 -126.13536 32275 ft 433 kts 232°
2026-04-22 20:59 29.09363 -126.18702 32276 ft 433 kts 232°
2026-04-22 21:00 29.05367 -126.23856 32277 ft 433 kts 232°
2026-04-22 21:00 29.01362 -126.29013 32279 ft 433 kts 232°
2026-04-22 21:01 28.97365 -126.34157 32279 ft 433 kts 232°
2026-04-22 21:01 28.93389 -126.39265 32278 ft 432 kts 232°
2026-04-22 21:02 28.89397 -126.44387 32278 ft 430 kts 232°
2026-04-22 21:02 28.85416 -126.49491 32279 ft 431 kts 232°
2026-04-22 21:03 28.81422 -126.54603 32281 ft 432 kts 231°
2026-04-22 21:03 28.77419 -126.59720 32282 ft 432 kts 231°
2026-04-22 21:04 28.73414 -126.64833 32289 ft 432 kts 231°
2026-04-22 21:04 28.69404 -126.69947 32290 ft 433 kts 231°
2026-04-22 21:05 28.65392 -126.75058 32293 ft 433 kts 231°
2026-04-22 21:05 28.61367 -126.80177 32287 ft 434 kts 231°
2026-04-22 21:06 28.57376 -126.85248 32290 ft 432 kts 231°
2026-04-22 21:06 28.53376 -126.90324 32259 ft 430 kts 231°
2026-04-22 21:07 28.49391 -126.95374 32281 ft 428 kts 231°
2026-04-22 21:07 28.45407 -127.00419 32285 ft 430 kts 231°
2026-04-22 21:08 28.41400 -127.05484 32292 ft 432 kts 231°
2026-04-22 21:08 28.37386 -127.10552 32294 ft 431 kts 231°
2026-04-22 21:09 28.33382 -127.15602 32294 ft 430 kts 231°
2026-04-22 21:09 28.29377 -127.20647 32291 ft 429 kts 231°
2026-04-22 21:10 28.25380 -127.25676 32286 ft 430 kts 230°
2026-04-22 21:10 28.21365 -127.30721 32290 ft 431 kts 230°
2026-04-22 21:11 28.17368 -127.35738 32290 ft 432 kts 230°
2026-04-22 21:11 28.13341 -127.40786 32277 ft 432 kts 230°
2026-04-22 21:12 28.09307 -127.45836 32277 ft 432 kts 230°
2026-04-22 21:12 28.05268 -127.50888 32281 ft 433 kts 230°
2026-04-22 21:13 28.01219 -127.55945 32281 ft 433 kts 230°
2026-04-22 21:13 27.97170 -127.60996 32280 ft 433 kts 230°
2026-04-22 21:14 27.93129 -127.66031 32281 ft 432 kts 230°
2026-04-22 21:14 27.89083 -127.71066 32276 ft 432 kts 230°
2026-04-22 21:15 27.87061 -127.73581 32444 ft 432 kts 230°
2026-04-22 21:15 27.85075 -127.76048 32906 ft 429 kts 229°
2026-04-22 21:15 27.83073 -127.78535 33366 ft 426 kts 229°
2026-04-22 21:15 27.81090 -127.80996 33815 ft 422 kts 229°
2026-04-22 21:16 27.79118 -127.83443 34242 ft 420 kts 229°
2026-04-22 21:16 27.77158 -127.85872 34598 ft 417 kts 229°
2026-04-22 21:16 27.75206 -127.88291 34933 ft 415 kts 229°
2026-04-22 21:16 27.73264 -127.90696 35212 ft 414 kts 229°
2026-04-22 21:17 27.71327 -127.93093 35505 ft 413 kts 229°
2026-04-22 21:17 27.69396 -127.95481 35810 ft 411 kts 229°
2026-04-22 21:17 27.67468 -127.97865 36087 ft 410 kts 229°
2026-04-22 21:17 27.65541 -128.00247 36237 ft 411 kts 229°
2026-04-22 21:18 27.61688 -128.05003 36258 ft 407 kts 229°
2026-04-22 21:18 27.57882 -128.09695 36261 ft 404 kts 229°
2026-04-22 21:19 27.54084 -128.14375 36263 ft 404 kts 229°
2026-04-22 21:19 27.50286 -128.19047 36262 ft 404 kts 229°
2026-04-22 21:20 27.46484 -128.23720 36261 ft 405 kts 229°
2026-04-22 21:20 27.42704 -128.28361 36260 ft 405 kts 229°
2026-04-22 21:21 27.38900 -128.33026 36262 ft 405 kts 229°
2026-04-22 21:21 27.35091 -128.37692 36264 ft 405 kts 229°
2026-04-22 21:22 27.31273 -128.42364 36261 ft 405 kts 229°
2026-04-22 21:22 27.27456 -128.47030 36263 ft 405 kts 229°
2026-04-22 21:23 27.23655 -128.51671 36260 ft 406 kts 229°
2026-04-22 21:23 27.19827 -128.56339 36262 ft 406 kts 229°
2026-04-22 21:24 27.15999 -128.61003 36265 ft 406 kts 229°
2026-04-22 21:24 27.12161 -128.65674 36269 ft 406 kts 229°
2026-04-22 21:25 27.08327 -128.70334 36267 ft 406 kts 228°
2026-04-22 21:25 27.04500 -128.74982 36263 ft 405 kts 228°
2026-04-22 21:26 27.00702 -128.79590 36260 ft 404 kts 228°
2026-04-22 21:26 26.96888 -128.84211 36233 ft 403 kts 228°
2026-04-22 21:27 26.93069 -128.88834 36256 ft 406 kts 228°
2026-04-22 21:27 26.89217 -128.93491 36264 ft 408 kts 228°
2026-04-22 21:28 26.85361 -128.98150 36262 ft 408 kts 228°
2026-04-22 21:28 26.81507 -129.02800 36269 ft 407 kts 228°
2026-04-22 21:29 26.78305 -129.06659 36266 ft 406 kts 228°
2026-04-22 21:29 26.74455 -129.11295 36267 ft 406 kts 228°
2026-04-22 21:30 26.70606 -129.15925 36257 ft 406 kts 228°
2026-04-22 21:30 26.66762 -129.20544 36257 ft 406 kts 228°
2026-04-22 21:31 26.62905 -129.25174 36250 ft 407 kts 227°
2026-04-22 21:31 26.59047 -129.29800 36256 ft 407 kts 227°
2026-04-22 21:32 26.55182 -129.34429 36251 ft 408 kts 227°
2026-04-22 21:32 26.50912 -129.39538 36253 ft 408 kts 227°
2026-04-22 21:33 26.47026 -129.44182 36258 ft 409 kts 227°
2026-04-22 21:33 26.43143 -129.48818 36261 ft 409 kts 227°
2026-04-22 21:34 26.39254 -129.53456 36255 ft 409 kts 227°
2026-04-22 21:34 26.35366 -129.58089 36260 ft 409 kts 227°
2026-04-22 21:35 26.31475 -129.62719 36262 ft 409 kts 227°
2026-04-22 21:35 26.27604 -129.67321 36266 ft 409 kts 227°
2026-04-22 21:36 26.23713 -129.71942 36256 ft 409 kts 227°
2026-04-22 21:36 26.19819 -129.76562 36257 ft 409 kts 227°
2026-04-22 21:37 26.15923 -129.81178 36251 ft 409 kts 227°
2026-04-22 21:37 26.12033 -129.85784 36247 ft 408 kts 227°
2026-04-22 21:38 26.08138 -129.90390 36241 ft 408 kts 227°
2026-04-22 21:38 26.04250 -129.94984 36241 ft 408 kts 227°
2026-04-22 21:39 26.00383 -129.99547 36234 ft 407 kts 227°
2026-04-22 21:39 25.96715 -130.04346 36246 ft 408 kts 229°
2026-04-22 21:40 25.93032 -130.09164 36242 ft 409 kts 229°
2026-04-22 21:40 25.89364 -130.14001 36247 ft 409 kts 229°
2026-04-22 21:41 25.85685 -130.18826 36242 ft 409 kts 229°
2026-04-22 21:41 25.82026 -130.23630 36258 ft 409 kts 229°
2026-04-22 21:42 25.78325 -130.28480 36227 ft 409 kts 229°
2026-04-22 21:42 25.74675 -130.33258 36237 ft 408 kts 229°
2026-04-22 21:43 25.71012 -130.38050 36247 ft 407 kts 229°
2026-04-22 21:43 25.67346 -130.42839 36244 ft 407 kts 229°
2026-04-22 21:44 25.63679 -130.47625 36254 ft 407 kts 229°
2026-04-22 21:44 25.60007 -130.52413 36234 ft 407 kts 229°
2026-04-22 21:45 25.56961 -130.56380 36234 ft 406 kts 229°